Weather History for KCKN - October, 2011

Change the Weather History Date:

Wednesday, October 5, 2011

  Actual Average Record
Temperature  
Mean Temperature 76 °F -  
Max Temperature 89 °F 58 °F 89 °F (2011)
Min Temperature 62 °F 36 °F 30 °F (2000)
Cooling Degree Days 10    
Growing Degree Days 26 (Base 50)    
Moisture  
Dew Point 46 °F    
Average Humidity 39    
Maximum Humidity 59    
Minimum Humidity 20    
Precipitation  
Precipitation 0.00 in - - ()
Sea Level Pressure  
Sea Level Pressure 29.86 in    
Wind  
Wind Speed 16 mph (South)    
Max Wind Speed 26 mph    
Max Gust Speed 34 mph    
Visibility 10 miles    
Events      
Averages and records for this station are not official NWS values.
T = Trace of Precipitation, MM = Missing Value Source: NWS Daily Summary

Daily Weather History Graph

Daily Weather History Graph

Search for Another Location

Airport or City:

Trip Planner

Search our weather history database for the weather conditions in past years. The results will help you decide how hot, cold, wet, or windy it might be!

Date:

Astronomy

Oct. 05, 2011 Rise Set
Actual Time 7:30 AM CDT 6:58 PM CDT
Civil Twilight 7:00 AM CDT 7:28 PM CDT
Nautical Twilight 6:24 AM CDT 8:04 PM CDT
Astronomical Twilight 5:47 AM CDT 8:40 PM CDT
Moon 4:02 PM CDT (10/5) 12:52 AM CDT (10/5)
Length of Visible Light 12h 28m
Length of Day
11h 27m
Waxing Gibbous, 66% of the Moon is Illuminated
Oct 5
Waxing Gibbous
Oct 11
Full
Oct 19
Last Quarter
Oct 26
New
Nov 2
First Quarter

Hourly Weather History & Observations

Time (CDT) Temp. Dew Point Humidity Pressure Visibility Wind Dir Wind Speed Gust Speed Precip Events Conditions
12:14 AM 68.0 °F 46.4 °F 46% 29.88 in 10.0 mi South 12.7 mph - N/A   Clear
12:35 AM 71.6 °F 46.4 °F 41% 29.87 in 10.0 mi South 17.3 mph - N/A   Clear
12:54 AM 69.8 °F 46.4 °F 43% 29.87 in 10.0 mi South 15.0 mph - N/A   Clear
1:15 AM 69.8 °F 46.4 °F 43% 29.86 in 10.0 mi SSE 15.0 mph 19.6 mph N/A   Clear
1:34 AM 71.6 °F 46.4 °F 41% 29.86 in 10.0 mi South 16.1 mph - N/A   Clear
2:34 AM 66.2 °F 46.4 °F 49% 29.86 in 10.0 mi SSE 13.8 mph - N/A   Clear
2:54 AM 66.2 °F 46.4 °F 49% 29.85 in 10.0 mi SSE 13.8 mph - N/A   Clear
3:15 AM 66.2 °F 46.4 °F 49% 29.85 in 10.0 mi SSE 12.7 mph - N/A   Clear
3:34 AM 66.2 °F 46.4 °F 49% 29.85 in 10.0 mi SSE 12.7 mph - N/A   Clear
3:54 AM 66.2 °F 46.4 °F 49% 29.85 in 10.0 mi SSE 12.7 mph - N/A   Clear
4:15 AM 64.4 °F 46.4 °F 52% 29.85 in 10.0 mi SSE 11.5 mph - N/A   Clear
4:54 AM 64.4 °F 48.2 °F 56% 29.85 in 10.0 mi SSE 12.7 mph - N/A   Clear
5:15 AM 64.4 °F 48.2 °F 56% 29.85 in 10.0 mi SSE 13.8 mph - N/A   Clear
5:34 AM 66.2 °F 48.2 °F 52% 29.86 in 10.0 mi SSE 13.8 mph - N/A   Clear
5:54 AM 64.4 °F 48.2 °F 56% 29.86 in 10.0 mi SSE 12.7 mph - N/A   Clear
6:15 AM 64.4 °F 46.4 °F 52% 29.86 in 10.0 mi SSE 12.7 mph - N/A   Clear
6:34 AM 68.0 °F 46.4 °F 46% 29.86 in 10.0 mi South 15.0 mph - N/A   Clear
6:55 AM 64.4 °F 46.4 °F 52% 29.87 in 10.0 mi SSE 8.1 mph - N/A   Clear
7:14 AM 62.6 °F 46.4 °F 55% 29.87 in 10.0 mi SSE 11.5 mph - N/A   Clear
7:34 AM 62.6 °F 48.2 °F 59% 29.87 in 10.0 mi SSE 11.5 mph - N/A   Clear
7:55 AM 64.4 °F 48.2 °F 56% 29.88 in 10.0 mi SSE 15.0 mph - N/A   Clear
8:14 AM 64.4 °F 48.2 °F 56% 29.88 in 10.0 mi SSE 13.8 mph - N/A   Clear
8:34 AM 64.4 °F 48.2 °F 56% 29.88 in 10.0 mi SSE 13.8 mph - N/A   Clear
8:55 AM 66.2 °F 48.2 °F 52% 29.88 in 10.0 mi South 15.0 mph - N/A   Clear
9:14 AM 68.0 °F 48.2 °F 49% 29.88 in 10.0 mi SSE 16.1 mph - N/A   Clear
9:34 AM 69.8 °F 48.2 °F 46% 29.88 in 10.0 mi South 16.1 mph - N/A   Clear
9:55 AM 71.6 °F 48.2 °F 43% 29.89 in 10.0 mi South 16.1 mph - N/A   Clear
10:15 AM 73.4 °F 48.2 °F 41% 29.89 in 10.0 mi South 17.3 mph 25.3 mph N/A   Clear
10:34 AM 75.2 °F 48.2 °F 38% 29.89 in 10.0 mi South 17.3 mph - N/A   Clear
10:55 AM 78.8 °F 46.4 °F 32% 29.89 in 10.0 mi South 17.3 mph - N/A   Clear
11:14 AM 78.8 °F 46.4 °F 32% 29.88 in 10.0 mi South 17.3 mph 23.0 mph N/A   Clear
11:35 AM 80.6 °F 46.4 °F 30% 29.88 in 10.0 mi South 17.3 mph 23.0 mph N/A   Clear
11:55 AM 82.4 °F 46.4 °F 28% 29.88 in 10.0 mi South 19.6 mph 24.2 mph N/A   Clear
12:14 PM 84.2 °F 46.4 °F 27% 29.88 in 10.0 mi South 19.6 mph 27.6 mph N/A   Clear
12:35 PM 84.2 °F 44.6 °F 25% 29.88 in 10.0 mi South 19.6 mph 24.2 mph N/A   Clear
12:55 PM 86.0 °F 44.6 °F 23% 29.87 in 10.0 mi South 19.6 mph - N/A   Clear
1:14 PM 87.8 °F 44.6 °F 22% 29.87 in 10.0 mi South 21.9 mph 27.6 mph N/A   Clear
1:35 PM 87.8 °F 44.6 °F 22% 29.87 in 10.0 mi South 21.9 mph 27.6 mph N/A   Clear
2:35 PM 89.6 °F 44.6 °F 21% 29.85 in 10.0 mi SSW 23.0 mph 27.6 mph N/A   Clear
2:54 PM 89.6 °F 42.8 °F 20% 29.85 in 10.0 mi South 26.5 mph 34.5 mph N/A   Clear
3:15 PM 89.6 °F 42.8 °F 20% 29.85 in 10.0 mi South 25.3 mph 34.5 mph N/A   Clear
3:34 PM 89.6 °F 44.6 °F 21% 29.85 in 10.0 mi South 24.2 mph 31.1 mph N/A   Clear
3:54 PM 89.6 °F 44.6 °F 21% 29.85 in 10.0 mi South 25.3 mph 32.2 mph N/A   Clear
4:15 PM 87.8 °F 44.6 °F 22% 29.84 in 10.0 mi South 23.0 mph 31.1 mph N/A   Clear
4:54 PM 87.8 °F 44.6 °F 22% 29.84 in 10.0 mi South 26.5 mph 34.5 mph N/A   Clear
5:15 PM 86.0 °F 44.6 °F 23% 29.84 in 10.0 mi South 23.0 mph 28.8 mph N/A   Clear
5:34 PM 84.2 °F 44.6 °F 25% 29.84 in 10.0 mi South 21.9 mph 29.9 mph N/A   Clear
5:54 PM 84.2 °F 44.6 °F 25% 29.83 in 10.0 mi South 20.7 mph 27.6 mph N/A   Clear
6:15 PM 82.4 °F 44.6 °F 26% 29.84 in 10.0 mi South 19.6 mph 24.2 mph N/A   Clear
6:34 PM 80.6 °F 46.4 °F 30% 29.84 in 10.0 mi SSE 18.4 mph 24.2 mph N/A   Clear
6:55 PM 80.6 °F 46.4 °F 30% 29.84 in 10.0 mi SSE 17.3 mph - N/A   Clear
7:14 PM 77.0 °F 46.4 °F 34% 29.84 in 10.0 mi SSE 13.8 mph - N/A   Clear
7:34 PM 75.2 °F 46.4 °F 36% 29.84 in 10.0 mi SSE 13.8 mph - N/A   Clear
7:55 PM 75.2 °F 46.4 °F 36% 29.85 in 10.0 mi SSE 12.7 mph - N/A   Clear
8:15 PM 73.4 °F 46.4 °F 38% 29.85 in 10.0 mi SSE 12.7 mph - N/A   Clear
8:34 PM 73.4 °F 46.4 °F 38% 29.85 in 10.0 mi SSE 13.8 mph - N/A   Clear
9:14 PM 73.4 °F 46.4 °F 38% 29.86 in 10.0 mi SSE 15.0 mph - N/A   Clear
9:35 PM 71.6 °F 46.4 °F 41% 29.86 in 10.0 mi SSE 15.0 mph - N/A   Clear
9:54 PM 73.4 °F 46.4 °F 38% 29.87 in 10.0 mi SSE 15.0 mph - N/A   Clear
10:14 PM 71.6 °F 46.4 °F 41% 29.87 in 10.0 mi SSE 16.1 mph - N/A   Clear
10:35 PM 71.6 °F 46.4 °F 41% 29.87 in 10.0 mi SSE 16.1 mph - N/A   Clear
10:54 PM 71.6 °F 44.6 °F 38% 29.88 in 10.0 mi SSE 16.1 mph - N/A   Clear
11:14 PM 71.6 °F 44.6 °F 38% 29.88 in 10.0 mi SSE 16.1 mph - N/A   Clear
11:35 PM 71.6 °F 44.6 °F 38% 29.88 in 10.0 mi SSE 16.1 mph - N/A   Clear